Radiation Dose at Monitoring Post of Fukushima Daini Nuclear Power Station
Date,Time,MP-1(microSv/h),MP-2(microSv/h),MP-3(microSv/h),MP-4(microSv/h),MP-5(microSv/h),MP-6(microSv/h),MP-7(microSv/h),Wind Direction,Wind Velocity(m/s),Rain
2023/09/14,00:00,0.147,0.130,0.220,0.205,0.212,0.119,0.076,southwest,1.2,No
2023/09/14,00:10,0.148,0.129,0.219,0.208,0.209,0.118,0.077,southwest,1.3,No
2023/09/14,00:20,0.148,0.129,0.220,0.205,0.212,0.119,0.076,southwest,1.5,No
2023/09/14,00:30,0.147,0.130,0.219,0.208,0.212,0.120,0.077,southwest,1.9,No
2023/09/14,00:40,0.147,0.130,0.219,0.208,0.209,0.119,0.076,southwest,2.3,No
2023/09/14,00:50,0.148,0.131,0.220,0.206,0.212,0.119,0.076,south-southwest,2.5,No
2023/09/14,01:00,0.146,0.130,0.219,0.207,0.212,0.119,0.076,south-southwest,2.4,No
2023/09/14,01:10,0.149,0.129,0.220,0.207,0.209,0.118,0.076,south-southwest,1.1,No
2023/09/14,01:20,0.147,0.130,0.219,0.206,0.213,0.120,0.076,-,CALM,No
2023/09/14,01:30,0.147,0.129,0.220,0.208,0.210,0.119,0.077,-,CALM,No
2023/09/14,01:40,0.148,0.130,0.218,0.206,0.210,0.120,0.076,-,CALM,No
2023/09/14,01:50,0.147,0.130,0.220,0.208,0.211,0.119,0.077,-,CALM,No
2023/09/14,02:00,0.147,0.130,0.220,0.208,0.211,0.118,0.076,south-southwest,0.7,No
2023/09/14,02:10,0.148,0.130,0.218,0.206,0.211,0.120,0.076,-,CALM,No
2023/09/14,02:20,0.147,0.129,0.219,0.208,0.211,0.120,0.077,-,CALM,No
2023/09/14,02:30,0.148,0.130,0.219,0.207,0.209,0.119,0.076,south,1.3,No
2023/09/14,02:40,0.147,0.129,0.220,0.207,0.212,0.120,0.077,south,1.7,No
2023/09/14,02:50,0.147,0.129,0.220,0.207,0.211,0.118,0.076,south-southeast,2.0,No
2023/09/14,03:00,0.148,0.131,0.219,0.206,0.209,0.119,0.076,south-southeast,1.9,No
2023/09/14,03:10,0.147,0.129,0.220,0.208,0.213,0.119,0.077,south,2.5,No
2023/09/14,03:20,0.148,0.130,0.218,0.206,0.210,0.119,0.076,south,2.3,No
2023/09/14,03:30,0.148,0.131,0.220,0.207,0.211,0.119,0.077,south,1.8,No
2023/09/14,03:40,0.145,0.130,0.220,0.208,0.213,0.118,0.076,south,1.7,No
2023/09/14,03:50,0.148,0.130,0.220,0.205,0.209,0.119,0.075,south,1.9,No
2023/09/14,04:00,0.148,0.129,0.221,0.208,0.210,0.120,0.076,south,2.2,No
2023/09/14,04:10,0.147,0.130,0.219,0.206,0.211,0.118,0.077,south,1.8,No
2023/09/14,04:20,0.148,0.131,0.220,0.206,0.209,0.120,0.077,southwest,0.9,No
2023/09/14,04:30,0.147,0.130,0.218,0.208,0.211,0.119,0.076,southwest,0.6,No
2023/09/14,04:40,0.149,0.130,0.220,0.206,0.211,0.119,0.076,-,CALM,No
2023/09/14,04:50,0.147,0.129,0.220,0.208,0.209,0.120,0.077,southeast,0.7,No
2023/09/14,05:00,0.146,0.130,0.218,0.207,0.212,0.119,0.077,south-southeast,0.9,No
2023/09/14,05:10,0.149,0.130,0.220,0.207,0.210,0.119,0.076,south-southwest,0.8,No
2023/09/14,05:20,0.148,0.130,0.218,0.208,0.210,0.119,0.077,south-southeast,0.7,No
2023/09/14,05:30,0.148,0.130,0.221,0.206,0.212,0.119,0.077,south-southeast,1.0,No
2023/09/14,05:40,0.148,0.130,0.220,0.207,0.210,0.119,0.077,south,1.2,No
2023/09/14,05:50,0.148,0.129,0.220,0.207,0.212,0.120,0.077,south,0.6,No
2023/09/14,06:00,0.148,0.129,0.221,0.206,0.212,0.118,0.076,south-southeast,1.0,No
2023/09/14,06:10,0.147,0.129,0.218,0.207,0.209,0.120,0.077,south-southeast,1.6,No
2023/09/14,06:20,0.147,0.130,0.221,0.205,0.211,0.120,0.076,south,1.4,No
2023/09/14,06:30,0.148,0.130,0.220,0.207,0.212,0.119,0.076,south,1.3,No
2023/09/14,06:40,0.147,0.130,0.220,0.207,0.209,0.119,0.076,south,1.4,No
2023/09/14,06:50,0.148,0.130,0.221,0.204,0.211,0.119,0.076,south-southeast,1.1,No
2023/09/14,07:00,0.148,0.130,0.218,0.207,0.212,0.118,0.076,south-southeast,1.9,No
2023/09/14,07:10,0.147,0.130,0.220,0.207,0.210,0.119,0.076,south-southeast,1.6,No
2023/09/14,07:20,0.148,0.130,0.220,0.205,0.208,0.118,0.077,south-southeast,1.8,No
2023/09/14,07:30,0.149,0.129,0.220,0.205,0.210,0.119,0.076,south-southeast,1.7,No
2023/09/14,07:40,0.148,0.130,0.217,0.204,0.213,0.120,0.077,south-southeast,2.2,No
2023/09/14,07:50,0.147,0.130,0.218,0.204,0.211,0.119,0.077,southeast,1.6,No
2023/09/14,08:00,0.149,0.130,0.218,0.204,0.209,0.119,0.077,southeast,2.6,No
2023/09/14,08:10,0.148,0.129,0.218,0.205,0.209,0.119,0.077,south-southeast,3.3,No
2023/09/14,08:20,0.146,0.129,0.219,0.205,0.210,0.121,0.077,south-southeast,4.1,No
2023/09/14,08:30,0.147,0.130,0.218,0.206,0.209,0.119,0.077,south-southeast,4.7,No
2023/09/14,08:40,0.145,0.130,0.218,0.206,0.208,0.119,0.077,south-southeast,5.4,No
2023/09/14,08:50,0.146,0.130,0.218,0.206,0.209,0.119,0.078,south-southeast,5.4,No
2023/09/14,09:00,0.147,0.130,0.218,0.206,0.210,0.119,0.076,south-southeast,5.2,No
2023/09/14,09:10,0.146,0.130,0.219,0.207,0.210,0.120,0.078,south-southeast,4.0,No
2023/09/14,09:20,0.147,0.129,0.219,0.206,0.209,0.119,0.076,south-southeast,4.5,No
2023/09/14,09:30,0.147,0.128,0.219,0.206,0.209,0.119,0.076,south-southeast,4.5,No
2023/09/14,09:40,0.146,0.129,0.217,0.207,0.212,0.118,0.076,south-southeast,5.7,No
2023/09/14,09:50,0.146,0.130,0.218,0.206,0.210,0.118,0.075,south-southeast,5.8,No
2023/09/14,10:00,0.147,0.129,0.219,0.207,0.210,0.118,0.076,south-southeast,6.2,No
2023/09/14,10:10,0.148,0.128,0.220,0.207,0.210,0.119,0.075,south-southeast,6.0,No
2023/09/14,10:20,0.147,0.129,0.219,0.207,0.212,0.119,0.075,south-southeast,7.3,No
2023/09/14,10:30,0.147,0.129,0.219,0.206,0.211,0.119,0.076,south-southeast,7.6,No
2023/09/14,10:40,0.148,0.129,0.220,0.208,0.211,0.118,0.076,south-southeast,8.2,No
2023/09/14,10:50,0.147,0.129,0.220,0.208,0.210,0.118,0.075,south-southeast,7.8,No
2023/09/14,11:00,0.147,0.129,0.219,0.206,0.210,0.118,0.076,south-southeast,7.2,No
2023/09/14,11:10,0.147,0.129,0.219,0.207,0.211,0.118,0.076,south-southeast,8.2,No
2023/09/14,11:20,0.147,0.129,0.219,0.207,0.209,0.119,0.076,south,9.2,No
2023/09/14,11:30,0.148,0.130,0.219,0.207,0.211,0.119,0.075,south-southeast,9.0,No
2023/09/14,11:40,0.148,0.129,0.220,0.206,0.211,0.119,0.076,south,8.8,No
2023/09/14,11:50,0.148,0.129,0.220,0.206,0.211,0.119,0.076,south-southeast,7.1,No
2023/09/14,12:00,0.148,0.129,0.219,0.206,0.211,0.119,0.076,south-southeast,8.7,No
2023/09/14,12:10,0.148,0.130,0.219,0.208,0.210,0.119,0.075,south-southeast,8.9,No
2023/09/14,12:20,0.147,0.130,0.219,0.207,0.210,0.118,0.076,south-southeast,6.6,No
2023/09/14,12:30,0.147,0.130,0.219,0.208,0.210,0.118,0.075,south-southeast,8.7,No
2023/09/14,12:40,0.148,0.129,0.219,0.207,0.211,0.118,0.075,south,7.8,No
2023/09/14,12:50,0.148,0.130,0.220,0.207,0.209,0.118,0.075,south-southeast,8.7,No
2023/09/14,13:00,0.148,0.130,0.219,0.207,0.210,0.119,0.076,south-southeast,8.1,No
2023/09/14,13:10,0.148,0.131,0.219,0.208,0.211,0.118,0.075,south,8.7,No
2023/09/14,13:20,0.146,0.130,0.219,0.208,0.211,0.118,0.075,south-southeast,7.5,No
2023/09/14,13:30,0.148,0.130,0.219,0.208,0.211,0.118,0.075,south-southeast,9.8,No
2023/09/14,13:40,0.147,0.128,0.219,0.207,0.209,0.119,0.076,south-southeast,9.5,No
2023/09/14,13:50,0.147,0.129,0.218,0.207,0.209,0.118,0.075,south,9.6,No
2023/09/14,14:00,0.147,0.130,0.218,0.206,0.209,0.119,0.075,south,8.4,No
2023/09/14,14:10,0.148,0.129,0.219,0.206,0.209,0.119,0.076,south-southeast,8.1,No
2023/09/14,14:20,0.147,0.129,0.218,0.206,0.210,0.119,0.075,south-southeast,9.8,No
2023/09/14,14:30,0.148,0.129,0.218,0.206,0.210,0.118,0.076,south-southeast,7.8,No
2023/09/14,14:40,0.148,0.130,0.219,0.206,0.209,0.118,0.075,south-southeast,7.1,No
2023/09/14,14:50,0.147,0.130,0.219,0.206,0.209,0.118,0.075,south,8.8,No
2023/09/14,15:00,0.147,0.129,0.219,0.207,0.208,0.119,0.076,south,10.1,No
2023/09/14,15:10,0.147,0.129,0.218,0.207,0.210,0.118,0.075,south,8.7,No
2023/09/14,15:20,0.146,0.129,0.219,0.206,0.209,0.118,0.075,south,8.5,No
2023/09/14,15:30,0.146,0.130,0.218,0.205,0.211,0.118,0.075,south,8.2,No
2023/09/14,15:40,0.147,0.130,0.219,0.206,0.210,0.118,0.075,south,8.5,No
2023/09/14,15:50,0.146,0.129,0.218,0.207,0.208,0.118,0.075,south,8.9,No
2023/09/14,16:00,0.147,0.129,0.217,0.205,0.209,0.119,0.075,south,7.8,No
2023/09/14,16:10,0.147,0.129,0.219,0.205,0.209,0.117,0.074,south,7.1,No
2023/09/14,16:20,0.147,0.128,0.216,0.205,0.208,0.118,0.074,south,7.1,No
2023/09/14,16:30,0.145,0.128,0.218,0.205,0.210,0.118,0.075,south,6.4,No
2023/09/14,16:40,0.146,0.129,0.218,0.205,0.209,0.118,0.076,south,5.6,No
2023/09/14,16:50,0.145,0.129,0.220,0.208,0.209,0.118,0.076,south,4.6,No
2023/09/14,17:00,0.146,0.128,0.222,0.209,0.209,0.118,0.076,south,3.7,No
2023/09/14,17:10,0.146,0.130,0.221,0.208,0.209,0.119,0.076,south,4.6,No
2023/09/14,17:20,0.148,0.130,0.220,0.207,0.209,0.120,0.074,south,5.3,No
2023/09/14,17:30,0.148,0.130,0.218,0.206,0.208,0.119,0.075,south,5.1,No
2023/09/14,17:40,0.147,0.130,0.218,0.206,0.209,0.118,0.075,south-southwest,5.1,No
2023/09/14,17:50,0.146,0.129,0.218,0.206,0.212,0.118,0.076,south,5.4,No
2023/09/14,18:00,0.146,0.129,0.220,0.208,0.213,0.119,0.076,south-southwest,5.0,No
2023/09/14,18:10,0.145,0.130,0.221,0.209,0.210,0.118,0.076,south-southwest,4.5,No
2023/09/14,18:20,0.148,0.130,0.220,0.207,0.210,0.119,0.075,south-southwest,4.7,No
2023/09/14,18:30,0.148,0.130,0.218,0.206,0.209,0.120,0.075,south-southwest,4.7,No
2023/09/14,18:40,0.147,0.130,0.218,0.206,0.210,0.119,0.075,south-southwest,3.8,No
2023/09/14,18:50,0.146,0.129,0.220,0.209,0.214,0.119,0.076,southwest,3.0,No
2023/09/14,19:00,0.147,0.130,0.222,0.208,0.211,0.118,0.075,south-southwest,3.2,No
2023/09/14,19:10,0.149,0.130,0.219,0.208,0.209,0.118,0.075,south,3.4,No
2023/09/14,19:20,0.149,0.129,0.218,0.205,0.209,0.120,0.076,south-southwest,3.1,No
2023/09/14,19:30,0.147,0.130,0.220,0.208,0.210,0.119,0.076,south-southwest,3.1,No
2023/09/14,19:40,0.147,0.131,0.222,0.209,0.212,0.118,0.075,south-southwest,2.8,No
2023/09/14,19:50,0.148,0.131,0.220,0.207,0.212,0.119,0.076,south-southwest,3.7,No
2023/09/14,20:00,0.148,0.130,0.218,0.207,0.209,0.119,0.075,south-southwest,3.6,No
2023/09/14,20:10,0.147,0.129,0.219,0.207,0.210,0.120,0.076,south-southwest,3.0,No
2023/09/14,20:20,0.147,0.130,0.222,0.210,0.212,0.119,0.076,southwest,2.6,No
2023/09/14,20:30,0.147,0.131,0.221,0.211,0.214,0.119,0.076,southwest,1.9,No
2023/09/14,20:40,0.149,0.131,0.220,0.209,0.212,0.119,0.075,west,2.2,No
2023/09/14,20:50,0.147,0.129,0.219,0.206,0.210,0.120,0.077,west-southwest,2.8,No
2023/09/14,21:00,0.147,0.131,0.222,0.210,0.211,0.119,0.076,west-southwest,1.9,No
2023/09/14,21:10,0.148,0.131,0.222,0.210,0.214,0.120,0.076,west,1.6,No
2023/09/14,21:20,0.150,0.130,0.219,0.209,0.212,0.120,0.077,west,0.8,No
2023/09/14,21:30,0.149,0.131,0.220,0.207,0.212,0.120,0.077,west-southwest,1.3,No
2023/09/14,21:40,0.148,0.132,0.224,0.210,0.211,0.120,0.077,west,1.6,No
2023/09/14,21:50,0.148,0.131,0.221,0.210,0.214,0.119,0.078,west-northwest,1.4,No
2023/09/14,22:00,0.150,0.130,0.220,0.208,0.211,0.120,0.077,north-northwest,1.0,No
2023/09/14,22:10,0.149,0.131,0.221,0.207,0.211,0.121,0.077,-,CALM,No
2023/09/14,22:20,0.148,0.131,0.221,0.209,0.209,0.120,0.078,west-northwest,0.8,No
2023/09/14,22:30,0.149,0.132,0.221,0.210,0.213,0.119,0.077,west-northwest,2.2,No
2023/09/14,22:40,0.151,0.130,0.220,0.207,0.213,0.120,0.076,west-northwest,3.4,No
2023/09/14,22:50,0.148,0.131,0.222,0.208,0.211,0.120,0.077,west-northwest,2.7,No
2023/09/14,23:00,0.147,0.131,0.220,0.211,0.209,0.120,0.077,west-northwest,1.5,No
2023/09/14,23:10,0.149,0.131,0.220,0.209,0.211,0.120,0.076,north-northwest,1.4,No
2023/09/14,23:20,0.149,0.131,0.220,0.207,0.213,0.120,0.076,north-northwest,1.5,No
2023/09/14,23:30,0.149,0.131,0.223,0.208,0.211,0.120,0.077,north,1.0,No
2023/09/14,23:40,0.147,0.130,0.220,0.209,0.209,0.119,0.077,-,CALM,No
2023/09/14,23:50,0.148,0.130,0.219,0.208,0.211,0.118,0.076,west-southwest,0.9,No
